When you browse on this site, cookies collect data to enhance your experience and personalize the content and advertising you see.
Visit our Privacy Policy to learn more. By continuing to use the site, you agree to this use of cookies and data.
  • In Schweiz
  • Länderverzeichnis
  • Für 7 Tage
  • Wassertemperatur
  • Wetterkarte
  • Widgets
  • user-avatar
    Anmelden

    Stündliche Wetter Kamarang

    Heute, 23 August, Freitag

    Zeit Temperatur Niederschläge Wind Luftdruck Luftfeuchtigkeit
    00:00 +20°C° 0 mm 0 m/S 714 mmHg 98%
    01:00 +20°C° 0 mm 0 m/S 714 mmHg 98%
    02:00 +19°C° 0 mm 0 m/S 714 mmHg 98%
    03:00 +19°C° 0 mm 0 m/S 714 mmHg 98%
    04:00 +19°C° 0 mm 0 m/S 714 mmHg 99%
    05:00 +19°C° 0 mm 0 m/S 714 mmHg 99%
    06:00 +20°C° 0 mm 0 m/S 714 mmHg 97%
    07:00 +21°C° 0 mm 0 m/S 715 mmHg 95%
    08:00 +22°C° 0 mm 0 m/S 715 mmHg 93%
    09:00 +25°C° 0 mm 0 m/S 715 mmHg 78%
    10:00 +29°C° 0 mm 1 m/S 716 mmHg 63%
    11:00 +32°C° 0 mm 1 m/S 716 mmHg 49%
    12:00 +32°C° 0.2 mm 1 m/S 715 mmHg 51%
    13:00 +32°C° 0.2 mm 2 m/S 714 mmHg 53%
    14:00 +32°C° 0.2 mm 2 m/S 713 mmHg 56%
    15:00 +30°C° 0.8 mm 1 m/S 713 mmHg 67%
    16:00 +29°C° 0.8 mm 1 m/S 713 mmHg 79%
    17:00 +27°C° 0.8 mm 1 m/S 712 mmHg 90%
    18:00 +24°C° 0.1 mm 0 m/S 713 mmHg 92%
    19:00 +22°C° 0.1 mm 0 m/S 713 mmHg 93%
    20:00 +21°C° 0.1 mm 0 m/S 713 mmHg 94%
    21:00 +20°C° 0 mm 0 m/S 713 mmHg 95%
    22:00 +20°C° 0 mm 0 m/S 714 mmHg 95%
    23:00 +20°C° 0 mm 0 m/S 714 mmHg 96%

    Morgen, 24 August, Samstag

    Zeit Temperatur Niederschläge Wind Luftdruck Luftfeuchtigkeit
    00:00 +19°C° 0.2 mm 0 m/S 714 mmHg 97%
    01:00 +19°C° 0.2 mm 0 m/S 713 mmHg 97%
    02:00 +19°C° 0.2 mm 0 m/S 713 mmHg 98%
    03:00 +19°C° 0.2 mm 0 m/S 713 mmHg 98%
    04:00 +19°C° 0.2 mm 0 m/S 713 mmHg 98%
    05:00 +19°C° 0.2 mm 0 m/S 713 mmHg 99%
    06:00 +20°C° 0.1 mm 0 m/S 714 mmHg 96%
    07:00 +21°C° 0.1 mm 0 m/S 714 mmHg 93%
    08:00 +22°C° 0.1 mm 0 m/S 715 mmHg 91%
    09:00 +25°C° 0.1 mm 0 m/S 715 mmHg 78%
    10:00 +28°C° 0.1 mm 0 m/S 715 mmHg 65%
    11:00 +33°C° 0.1 mm 1 m/S 716 mmHg 51%
    12:00 +33°C° 0 mm 1 m/S 715 mmHg 49%
    13:00 +34°C° 0 mm 1 m/S 714 mmHg 46%
    14:00 +34°C° 0 mm 1 m/S 713 mmHg 44%
    15:00 +32°C° 0.3 mm 1 m/S 713 mmHg 54%
    16:00 +30°C° 0.3 mm 1 m/S 712 mmHg 64%
    17:00 +29°C° 0.3 mm 1 m/S 712 mmHg 74%
    18:00 +27°C° 0.7 mm 1 m/S 712 mmHg 82%
    19:00 +25°C° 0.7 mm 1 m/S 713 mmHg 90%
    20:00 +21°C° 0.7 mm 0 m/S 713 mmHg 98%
    21:00 +21°C° 0.5 mm 0 m/S 714 mmHg 98%
    22:00 +20°C° 0.5 mm 0 m/S 714 mmHg 98%
    23:00 +20°C° 0.5 mm 0 m/S 714 mmHg 99%

    übermorgen, 25 August, Sonntag

    Zeit Temperatur Niederschläge Wind Luftdruck Luftfeuchtigkeit
    00:00 +20°C° 0 mm 0 m/S 714 mmHg 99%
    01:00 +20°C° 0 mm 0 m/S 713 mmHg 99%
    02:00 +19°C° 0 mm 0 m/S 713 mmHg 99%
    03:00 +19°C° 0.1 mm 0 m/S 713 mmHg 99%
    04:00 +19°C° 0.1 mm 0 m/S 713 mmHg 99%
    05:00 +19°C° 0.1 mm 0 m/S 713 mmHg 99%
    06:00 +20°C° 0 mm 0 m/S 714 mmHg 97%
    07:00 +21°C° 0 mm 0 m/S 714 mmHg 96%
    08:00 +22°C° 0 mm 0 m/S 714 mmHg 94%
    09:00 +24°C° 0 mm 0 m/S 714 mmHg 83%
    10:00 +26°C° 0 mm 0 m/S 715 mmHg 72%
    11:00 +28°C° 0 mm 0 m/S 715 mmHg 61%
    12:00 +30°C° 0.2 mm 1 m/S 714 mmHg 60%
    13:00 +31°C° 0.2 mm 1 m/S 713 mmHg 59%
    14:00 +31°C° 0.2 mm 2 m/S 712 mmHg 57%
    15:00 +30°C° 0.4 mm 1 m/S 712 mmHg 63%
    16:00 +29°C° 0.4 mm 1 m/S 712 mmHg 69%
    17:00 +28°C° 0.4 mm 1 m/S 712 mmHg 75%
    18:00 +26°C° 0.8 mm 1 m/S 712 mmHg 82%
    19:00 +22°C° 0.8 mm 0 m/S 712 mmHg 89%
    20:00 +21°C° 0.8 mm 0 m/S 713 mmHg 96%
    21:00 +20°C° 0.1 mm 0 m/S 713 mmHg 97%
    22:00 +20°C° 0.1 mm 0 m/S 713 mmHg 97%
    23:00 +20°C° 0.1 mm 0 m/S 714 mmHg 98%

    26 August, Montag

    Zeit Temperatur Niederschläge Wind Luftdruck Luftfeuchtigkeit
    00:00 +20°C° 0 mm 0 m/S 713 mmHg 98%
    01:00 +19°C° 0 mm 0 m/S 713 mmHg 98%
    02:00 +19°C° 0 mm 0 m/S 712 mmHg 99%
    03:00 +19°C° 0 mm 0 m/S 712 mmHg 99%
    04:00 +19°C° 0 mm 0 m/S 712 mmHg 99%
    05:00 +19°C° 0 mm 0 m/S 712 mmHg 99%
    06:00 +20°C° 0 mm 0 m/S 713 mmHg 96%
    07:00 +21°C° 0 mm 0 m/S 713 mmHg 94%
    08:00 +22°C° 0 mm 0 m/S 714 mmHg 91%
    09:00 +25°C° 0.1 mm 0 m/S 714 mmHg 78%
    10:00 +28°C° 0.1 mm 0 m/S 714 mmHg 65%
    11:00 +30°C° 0.1 mm 0 m/S 714 mmHg 52%
    12:00 +32°C° 0.6 mm 1 m/S 713 mmHg 57%
    13:00 +31°C° 0.6 mm 1 m/S 712 mmHg 63%
    14:00 +30°C° 0.6 mm 2 m/S 711 mmHg 68%
    15:00 +29°C° 1.3 mm 1 m/S 711 mmHg 75%
    16:00 +28°C° 1.3 mm 1 m/S 711 mmHg 83%
    17:00 +25°C° 1.3 mm 0 m/S 711 mmHg 90%
    18:00 +24°C° 1.8 mm 0 m/S 711 mmHg 92%
    19:00 +23°C° 1.8 mm 0 m/S 712 mmHg 94%
    20:00 +21°C° 1.8 mm 0 m/S 712 mmHg 95%
    21:00 +21°C° 0.5 mm 0 m/S 712 mmHg 96%
    22:00 +21°C° 0.5 mm 0 m/S 713 mmHg 97%
    23:00 +20°C° 0.5 mm 0 m/S 713 mmHg 97%

    27 August, Dienstag

    Zeit Temperatur Niederschläge Wind Luftdruck Luftfeuchtigkeit
    00:00 +20°C° 0.5 mm 0 m/S 713 mmHg 98%
    01:00 +20°C° 0.5 mm 0 m/S 712 mmHg 98%
    02:00 +20°C° 0.5 mm 0 m/S 712 mmHg 99%
    03:00 +19°C° 0.1 mm 0 m/S 712 mmHg 99%
    04:00 +19°C° 0.1 mm 0 m/S 712 mmHg 99%
    05:00 +19°C° 0.1 mm 0 m/S 712 mmHg 99%
    06:00 +20°C° 0 mm 0 m/S 712 mmHg 96%
    07:00 +21°C° 0 mm 0 m/S 713 mmHg 93%
    08:00 +23°C° 0 mm 0 m/S 713 mmHg 91%
    09:00 +25°C° 0.3 mm 0 m/S 714 mmHg 82%
    10:00 +27°C° 0.3 mm 0 m/S 714 mmHg 72%
    11:00 +29°C° 0.3 mm 0 m/S 714 mmHg 63%
    12:00 +31°C° 0.5 mm 1 m/S 713 mmHg 62%
    13:00 +31°C° 0.5 mm 1 m/S 712 mmHg 60%
    14:00 +31°C° 0.5 mm 1 m/S 712 mmHg 58%
    15:00 +30°C° 1 mm 1 m/S 711 mmHg 68%
    16:00 +29°C° 1 mm 1 m/S 711 mmHg 78%
    17:00 +25°C° 1 mm 0 m/S 711 mmHg 88%
    18:00 +24°C° 0.4 mm 0 m/S 711 mmHg 90%
    19:00 +23°C° 0.4 mm 0 m/S 712 mmHg 92%
    20:00 +21°C° 0.4 mm 0 m/S 712 mmHg 94%
    21:00 +21°C° 0.2 mm 0 m/S 712 mmHg 95%
    22:00 +21°C° 0.2 mm 0 m/S 713 mmHg 96%
    23:00 +21°C° 0.2 mm 0 m/S 713 mmHg 96%

    28 August, Mittwoch

    Zeit Temperatur Niederschläge Wind Luftdruck Luftfeuchtigkeit
    00:00 +20°C° 0.3 mm 0 m/S 712 mmHg 97%
    01:00 +20°C° 0.3 mm 0 m/S 712 mmHg 98%
    02:00 +20°C° 0.3 mm 0 m/S 711 mmHg 98%
    03:00 +19°C° 0 mm 0 m/S 712 mmHg 98%
    04:00 +19°C° 0 mm 0 m/S 712 mmHg 98%
    05:00 +19°C° 0 mm 0 m/S 712 mmHg 98%
    06:00 +20°C° 0 mm 0 m/S 712 mmHg 95%
    07:00 +22°C° 0 mm 0 m/S 713 mmHg 91%
    08:00 +23°C° 0 mm 0 m/S 714 mmHg 87%
    09:00 +25°C° 0.4 mm 0 m/S 714 mmHg 80%
    10:00 +26°C° 0.4 mm 0 m/S 714 mmHg 73%
    11:00 +30°C° 0.4 mm 1 m/S 714 mmHg 67%
    12:00 +31°C° 0.2 mm 1 m/S 714 mmHg 59%
    13:00 +33°C° 0.2 mm 1 m/S 713 mmHg 50%
    14:00 +34°C° 0.2 mm 1 m/S 712 mmHg 42%
    15:00 +31°C° 0.5 mm 1 m/S 712 mmHg 58%
    16:00 +29°C° 0.5 mm 1 m/S 711 mmHg 73%
    17:00 +24°C° 0.5 mm 0 m/S 711 mmHg 88%
    18:00 +23°C° 0.4 mm 0 m/S 711 mmHg 91%
    19:00 +22°C° 0.4 mm 0 m/S 711 mmHg 93%
    20:00 +21°C° 0.4 mm 0 m/S 712 mmHg 95%
    21:00 +21°C° 0.1 mm 0 m/S 712 mmHg 96%
    22:00 +21°C° 0.1 mm 0 m/S 712 mmHg 96%
    23:00 +20°C° 0.1 mm 0 m/S 713 mmHg 97%
    Mehr zeigen